Location: Cruquius
(52.3348°N, 4.6319°E)
Time: 08:07:42
(UTC+00:00)

Ariane Rocket - Pass Details

Date: 12 May 2021
Orbit: 761 x 769 km, 98.7° (Epoch: 20 June)

Event Time Altitude Azimuth Distance (km) Brightness Sun altitude
Rises 20:14:44 0° 182° (S) 3,212 5.8 -6.7°
Reaches altitude 10° 20:17:07 10° 189° (S) 2,292 5.1 -7.0°
Maximum altitude 20:21:57 44° 261° (W) 1,046 4.1 -7.6°
Drops below altitude 10° 20:26:49 10° 334° (NNW) 2,314 6.9 -8.1°
Sets 20:29:15 0° 341° (NNW) 3,246 7.6 -8.3°
